AAR243 KSEA-RKSI

Flight info

Callsign AAR243
Flight time N/A
Altitude 32000
Route BANGR9 ARRIE J523 TOU DCT FINGS DCT KATCH B757 CJAYY DCT 58N160W DCT SPY G469 PINTT DCT OBOYD DCT NATES R220 NODAN R217 ASTER Y514 SDE Y512 GTC Y142 SAMON Y14 SUGNO Y16 SAPRA Y685 CUN CUN2M
Aircraft B744/H-SDE1E2E3FGHIJ3J5M1P1RWXYZ/LB1D1

Departure

Time N/A
Airport Seattle–Tacoma International Airport (KSEA)

Arrival

Time 2026-05-06 16:24
Airport Incheon International Airport (RKSI)
Time Latitude Longitude Altitude Speed Heading
2026-05-06 09:59 56.74978 -176.61602 34096 ft 468 kts 259°
2026-05-06 09:59 56.74415 -176.67437 34096 ft 468 kts 258°
2026-05-06 09:59 56.73248 -176.79098 34102 ft 468 kts 258°
2026-05-06 10:00 56.72049 -176.90773 34099 ft 470 kts 258°
2026-05-06 10:00 56.70829 -177.02465 34097 ft 470 kts 257°
2026-05-06 10:01 56.69602 -177.14087 34095 ft 472 kts 257°
2026-05-06 10:01 56.68351 -177.25813 34093 ft 473 kts 257°
2026-05-06 10:02 56.67085 -177.37564 34091 ft 474 kts 257°
2026-05-06 10:02 56.65803 -177.49347 34068 ft 475 kts 256°
2026-05-06 10:03 56.64508 -177.61138 34063 ft 476 kts 256°
2026-05-06 10:03 56.63200 -177.72941 34062 ft 477 kts 256°
2026-05-06 10:04 56.61877 -177.84769 34060 ft 479 kts 256°
2026-05-06 10:04 56.60540 -177.96615 34058 ft 479 kts 256°
2026-05-06 10:05 56.59190 -178.08468 34058 ft 481 kts 255°
2026-05-06 10:05 56.57821 -178.20367 34054 ft 482 kts 255°
2026-05-06 10:06 56.56443 -178.32251 34052 ft 482 kts 255°
2026-05-06 10:06 56.55052 -178.44142 34053 ft 482 kts 255°
2026-05-06 10:07 56.53651 -178.56004 34051 ft 482 kts 255°
2026-05-06 10:07 56.52238 -178.67873 34050 ft 482 kts 255°
2026-05-06 10:08 56.50813 -178.79730 34049 ft 482 kts 255°
2026-05-06 10:08 56.49378 -178.91575 34048 ft 483 kts 254°
2026-05-06 10:09 56.47924 -179.03466 34048 ft 484 kts 254°
2026-05-06 10:09 56.46459 -179.15351 34045 ft 485 kts 254°
2026-05-06 10:10 56.44979 -179.27256 34045 ft 486 kts 253°
2026-05-06 10:10 56.43501 -179.39038 34043 ft 487 kts 253°
2026-05-06 10:11 56.42229 -179.49111 34043 ft 488 kts 253°
2026-05-06 10:11 56.40705 -179.61073 34044 ft 490 kts 253°
2026-05-06 10:12 56.39165 -179.73073 34041 ft 491 kts 253°
2026-05-06 10:12 56.37611 -179.85079 34040 ft 492 kts 252°
2026-05-06 10:13 56.36042 -179.97097 34040 ft 493 kts 252°
2026-05-06 10:13 56.34458 179.90868 33986 ft 494 kts 252°
2026-05-06 10:14 56.32860 179.78825 33866 ft 494 kts 252°
2026-05-06 10:14 56.31252 179.66806 33720 ft 493 kts 252°
2026-05-06 10:15 56.29645 179.54889 33621 ft 492 kts 252°
2026-05-06 10:15 56.28019 179.42928 33614 ft 492 kts 251°
2026-05-06 10:16 56.26382 179.30976 33613 ft 492 kts 251°
2026-05-06 10:16 56.24736 179.19055 33611 ft 491 kts 251°
2026-05-06 10:17 56.23078 179.07139 33655 ft 491 kts 251°
2026-05-06 10:17 56.21410 178.95247 33654 ft 491 kts 250°
2026-05-06 10:18 56.17861 178.70231 33650 ft 490 kts 250°
2026-05-06 10:19 56.16198 178.58368 33648 ft 491 kts 250°
2026-05-06 10:19 56.14523 178.46574 33646 ft 491 kts 249°
2026-05-06 10:20 56.12774 178.34739 33643 ft 491 kts 248°
2026-05-06 10:20 56.11014 178.22924 33641 ft 491 kts 248°
2026-05-06 10:21 56.09249 178.11102 33639 ft 492 kts 248°
2026-05-06 10:21 56.07429 177.99313 33637 ft 491 kts 247°
2026-05-06 10:22 56.05501 177.87610 33634 ft 490 kts 246°
2026-05-06 10:22 56.03565 177.75923 33633 ft 490 kts 246°
2026-05-06 10:23 56.01621 177.64254 33631 ft 490 kts 246°
2026-05-06 10:23 55.99665 177.52598 33624 ft 490 kts 246°
2026-05-06 10:24 55.97767 177.40905 33618 ft 491 kts 247°
2026-05-06 10:25 55.94250 177.19215 33615 ft 492 kts 246°
2026-05-06 10:25 55.92296 177.07529 33613 ft 492 kts 246°
2026-05-06 10:26 55.90322 176.95850 33612 ft 493 kts 246°
2026-05-06 10:26 55.88332 176.84162 33610 ft 493 kts 246°
2026-05-06 10:27 55.86329 176.72487 33608 ft 494 kts 246°
2026-05-06 10:27 55.84310 176.60795 33607 ft 494 kts 246°
2026-05-06 10:28 55.82277 176.49104 33605 ft 495 kts 246°
2026-05-06 10:28 55.80233 176.37419 33604 ft 495 kts 245°
2026-05-06 10:29 55.78176 176.25742 33602 ft 495 kts 245°
2026-05-06 10:29 55.76111 176.14088 33601 ft 496 kts 245°
2026-05-06 10:30 55.74025 176.02396 33599 ft 496 kts 245°
2026-05-06 10:30 55.71932 175.90738 33598 ft 496 kts 245°
2026-05-06 10:31 55.69826 175.79086 33597 ft 496 kts 245°
2026-05-06 10:31 55.67735 175.67581 33595 ft 496 kts 245°
2026-05-06 10:32 55.65599 175.55907 33594 ft 496 kts 245°
2026-05-06 10:32 55.63463 175.44300 33593 ft 496 kts 245°
2026-05-06 10:33 55.61314 175.32702 33591 ft 496 kts 245°
2026-05-06 10:33 55.59178 175.21237 33593 ft 496 kts 245°
2026-05-06 10:34 55.56980 175.09516 33593 ft 497 kts 245°
2026-05-06 10:34 55.54795 174.97938 33596 ft 497 kts 245°
2026-05-06 10:35 55.52597 174.86360 33591 ft 498 kts 245°
2026-05-06 10:35 55.50387 174.74787 33590 ft 498 kts 245°
2026-05-06 10:36 55.48163 174.63211 33589 ft 498 kts 245°
2026-05-06 10:36 55.45930 174.51661 33588 ft 498 kts 245°
2026-05-06 10:37 55.43686 174.40123 33587 ft 498 kts 245°
2026-05-06 10:37 55.41431 174.28595 33591 ft 498 kts 245°
2026-05-06 10:38 55.39176 174.17135 33585 ft 499 kts 245°
2026-05-06 10:38 55.36897 174.05621 33577 ft 499 kts 245°
2026-05-06 10:39 55.34604 173.94109 33576 ft 499 kts 245°
2026-05-06 10:39 55.32298 173.82595 33574 ft 500 kts 245°
2026-05-06 10:40 55.29980 173.71090 33573 ft 500 kts 245°
2026-05-06 10:40 55.27652 173.59599 33573 ft 500 kts 245°
2026-05-06 10:41 55.25314 173.48127 33573 ft 500 kts 245°
2026-05-06 10:41 55.22963 173.36660 33572 ft 500 kts 245°
2026-05-06 10:42 55.20601 173.25202 33571 ft 500 kts 245°
2026-05-06 10:42 55.18228 173.13758 33572 ft 500 kts 245°
2026-05-06 10:43 55.15843 173.02319 33571 ft 500 kts 245°
2026-05-06 10:44 55.12248 172.85198 33570 ft 500 kts 245°
2026-05-06 10:44 55.09834 172.73786 33570 ft 500 kts 245°
2026-05-06 10:45 55.07413 172.62402 33569 ft 500 kts 245°
2026-05-06 10:45 55.04981 172.51026 33569 ft 501 kts 245°
2026-05-06 10:46 55.02597 172.39625 33569 ft 500 kts 245°
2026-05-06 10:46 55.00136 172.28296 33569 ft 500 kts 244°
2026-05-06 10:47 54.97653 172.16995 33568 ft 500 kts 244°
2026-05-06 10:47 54.95164 172.05700 33568 ft 500 kts 244°
2026-05-06 10:48 54.92059 171.95121 33568 ft 493 kts 231°
2026-05-06 10:48 54.87912 171.85675 33568 ft 490 kts 226°
2026-05-06 10:49 54.83529 171.76655 33567 ft 488 kts 226°
2026-05-06 10:49 54.79134 171.67582 33566 ft 488 kts 226°
2026-05-06 10:50 54.74809 171.58626 33566 ft 488 kts 226°
2026-05-06 10:50 54.70462 171.49593 33566 ft 489 kts 227°
2026-05-06 10:51 54.66173 171.40496 33565 ft 488 kts 227°
2026-05-06 10:51 54.61842 171.31447 33565 ft 488 kts 226°
2026-05-06 10:52 54.57496 171.22447 33565 ft 488 kts 226°
2026-05-06 10:52 54.53141 171.13474 33564 ft 488 kts 226°
2026-05-06 10:53 54.48777 171.04523 33564 ft 488 kts 226°
2026-05-06 10:53 54.44404 170.95586 33563 ft 488 kts 226°
2026-05-06 10:54 54.40024 170.86669 33564 ft 488 kts 226°
2026-05-06 10:54 54.35638 170.77772 33563 ft 488 kts 226°
2026-05-06 10:55 54.31247 170.68897 33562 ft 488 kts 226°
2026-05-06 10:55 54.26851 170.60044 33563 ft 488 kts 226°
2026-05-06 10:56 54.22448 170.51207 33562 ft 488 kts 226°
2026-05-06 10:56 54.18042 170.42398 33562 ft 488 kts 226°
2026-05-06 10:57 54.13631 170.33611 33567 ft 487 kts 227°
2026-05-06 10:57 54.09217 170.24846 33562 ft 487 kts 226°
2026-05-06 10:58 54.04797 170.16103 33561 ft 487 kts 226°
2026-05-06 10:58 54.00388 170.07412 33561 ft 487 kts 226°
2026-05-06 10:59 53.95941 169.98676 33561 ft 487 kts 226°
2026-05-06 10:59 53.91507 169.89998 33561 ft 487 kts 226°
2026-05-06 11:00 53.87066 169.81336 33556 ft 486 kts 226°
2026-05-06 11:00 53.82686 169.72767 33560 ft 487 kts 227°
2026-05-06 11:01 53.78205 169.64016 33559 ft 486 kts 226°
2026-05-06 11:01 53.73766 169.55485 33560 ft 486 kts 226°
2026-05-06 11:02 53.69265 169.46872 33559 ft 486 kts 226°
2026-05-06 11:02 53.64795 169.38335 33566 ft 486 kts 226°
2026-05-06 11:03 53.60936 169.29071 33570 ft 488 kts 237°
2026-05-06 11:03 53.57701 169.19015 33563 ft 489 kts 240°
2026-05-06 11:04 53.54511 169.08914 33573 ft 489 kts 240°
2026-05-06 11:04 53.51273 168.98869 33573 ft 489 kts 239°
2026-05-06 11:05 53.48020 168.88852 33573 ft 488 kts 239°
2026-05-06 11:05 53.44814 168.78797 33573 ft 489 kts 241°
2026-05-06 11:06 53.41622 168.68727 33573 ft 489 kts 240°
2026-05-06 11:06 53.38341 168.58750 33571 ft 489 kts 239°
2026-05-06 11:07 53.35041 168.48778 33572 ft 490 kts 239°
2026-05-06 11:07 53.31740 168.38816 33571 ft 490 kts 239°
2026-05-06 11:08 53.28431 168.28871 33570 ft 489 kts 239°
2026-05-06 11:08 53.25095 168.18963 33570 ft 489 kts 239°
2026-05-06 11:09 53.21752 168.09089 33570 ft 489 kts 239°
2026-05-06 11:09 53.18400 167.99232 33569 ft 488 kts 239°
2026-05-06 11:10 53.15041 167.89396 33569 ft 488 kts 239°
2026-05-06 11:10 53.11724 167.79551 33568 ft 487 kts 240°
2026-05-06 11:11 53.08972 167.71299 33568 ft 486 kts 240°
2026-05-06 11:11 53.05111 167.59913 33567 ft 486 kts 240°
2026-05-06 11:12 53.02314 167.51740 33566 ft 486 kts 240°
2026-05-06 11:12 52.98984 167.42060 33566 ft 486 kts 240°
2026-05-06 11:13 52.95627 167.32347 33565 ft 485 kts 240°
2026-05-06 11:13 52.92269 167.22670 33564 ft 484 kts 240°
2026-05-06 11:14 52.88899 167.12998 33540 ft 485 kts 240°
2026-05-06 11:14 52.85525 167.03351 33536 ft 484 kts 240°
2026-05-06 11:15 52.82140 166.93712 33535 ft 484 kts 240°
2026-05-06 11:15 52.78749 166.84092 33534 ft 484 kts 240°
2026-05-06 11:16 52.75354 166.74499 33534 ft 483 kts 240°
2026-05-06 11:16 52.71957 166.64935 33532 ft 483 kts 240°
2026-05-06 11:17 52.68556 166.55398 33535 ft 482 kts 240°
2026-05-06 11:17 52.65151 166.45886 33534 ft 481 kts 240°
2026-05-06 11:18 52.61745 166.36406 33533 ft 480 kts 240°
2026-05-06 11:18 52.58342 166.26971 33532 ft 479 kts 240°
2026-05-06 11:19 52.54935 166.17558 33532 ft 479 kts 240°
2026-05-06 11:19 52.51526 166.08176 33530 ft 478 kts 240°
2026-05-06 11:20 52.48117 165.98827 33530 ft 477 kts 240°
2026-05-06 11:20 52.44700 165.89494 33529 ft 477 kts 240°
2026-05-06 11:21 52.41282 165.80189 33528 ft 476 kts 240°
2026-05-06 11:21 52.37859 165.70908 33527 ft 476 kts 240°
2026-05-06 11:22 52.34427 165.61633 33526 ft 477 kts 240°
2026-05-06 11:22 52.30980 165.52354 33525 ft 478 kts 240°
2026-05-06 11:23 52.27540 165.43085 33524 ft 477 kts 240°
2026-05-06 11:23 52.24114 165.33802 33523 ft 477 kts 239°
2026-05-06 11:24 52.20631 165.24569 33522 ft 479 kts 239°
2026-05-06 11:24 52.17129 165.15336 33521 ft 479 kts 239°
2026-05-06 11:25 52.13624 165.06113 33521 ft 479 kts 239°
2026-05-06 11:25 52.10118 164.96896 33520 ft 479 kts 239°
2026-05-06 11:26 52.06626 164.87788 33519 ft 479 kts 239°
2026-05-06 11:26 52.03063 164.78540 33518 ft 479 kts 239°
2026-05-06 11:27 51.99525 164.69391 33517 ft 478 kts 239°
2026-05-06 11:27 51.96004 164.60315 33515 ft 473 kts 240°
2026-05-06 11:28 51.92508 164.51298 33515 ft 473 kts 240°
2026-05-06 11:28 51.89081 164.42281 33515 ft 474 kts 240°
2026-05-06 11:29 51.85582 164.33239 33513 ft 474 kts 240°
2026-05-06 11:29 51.82065 164.24222 33513 ft 474 kts 240°
2026-05-06 11:30 51.78533 164.15208 33512 ft 475 kts 240°
2026-05-06 11:30 51.75034 164.06165 33511 ft 475 kts 240°
2026-05-06 11:31 51.71483 163.97183 33511 ft 475 kts 239°
2026-05-06 11:31 51.67917 163.88234 33510 ft 474 kts 239°
2026-05-06 11:32 51.64348 163.79303 33509 ft 474 kts 239°
2026-05-06 11:32 51.60783 163.70391 33509 ft 473 kts 239°
2026-05-06 11:33 51.57213 163.61510 33656 ft 471 kts 239°
2026-05-06 11:33 51.55429 163.57098 33899 ft 472 kts 239°
2026-05-06 11:33 51.53634 163.52671 34100 ft 472 kts 239°
2026-05-06 11:33 51.51873 163.48334 34297 ft 473 kts 239°
2026-05-06 11:34 51.50043 163.43838 34557 ft 472 kts 239°
2026-05-06 11:34 51.48260 163.39464 34768 ft 472 kts 239°
2026-05-06 11:34 51.46450 163.35032 34956 ft 472 kts 239°
2026-05-06 11:34 51.44653 163.30639 35142 ft 472 kts 239°
2026-05-06 11:35 51.42853 163.26248 35314 ft 471 kts 239°
2026-05-06 11:35 51.41065 163.21844 35468 ft 471 kts 240°
2026-05-06 11:35 51.39305 163.17421 35502 ft 471 kts 240°
2026-05-06 11:36 51.35753 163.08608 35505 ft 471 kts 239°
2026-05-06 11:36 51.32180 162.99848 35505 ft 470 kts 239°
2026-05-06 11:37 51.28601 162.91131 35505 ft 469 kts 239°
2026-05-06 11:37 51.25012 162.82430 35504 ft 469 kts 239°
2026-05-06 11:38 51.21419 162.73752 35504 ft 468 kts 239°
2026-05-06 11:38 51.17824 162.65099 35504 ft 468 kts 239°
2026-05-06 11:39 51.14219 162.56452 35503 ft 468 kts 239°
2026-05-06 11:39 51.10615 162.47837 35503 ft 467 kts 239°
2026-05-06 11:40 51.07009 162.39243 35502 ft 467 kts 239°
2026-05-06 11:40 51.03397 162.30665 35502 ft 466 kts 239°
2026-05-06 11:41 50.99785 162.22116 35502 ft 466 kts 239°
2026-05-06 11:41 50.96173 162.13593 35501 ft 465 kts 239°
2026-05-06 11:42 50.92563 162.05104 35501 ft 465 kts 239°
2026-05-06 11:42 50.88963 161.96666 35502 ft 464 kts 239°
2026-05-06 11:43 50.85336 161.88190 35501 ft 462 kts 239°
2026-05-06 11:43 50.81730 161.79793 35501 ft 461 kts 239°
2026-05-06 11:44 50.76316 161.67233 35501 ft 461 kts 239°
2026-05-06 11:44 50.72701 161.58883 35500 ft 460 kts 239°
2026-05-06 11:45 50.69107 161.50606 35501 ft 461 kts 239°
2026-05-06 11:45 50.65480 161.42278 35502 ft 461 kts 239°
2026-05-06 11:46 50.61848 161.33967 35501 ft 460 kts 239°
2026-05-06 11:46 50.58218 161.25684 35501 ft 459 kts 239°
2026-05-06 11:47 50.54585 161.17423 35502 ft 460 kts 239°
2026-05-06 11:47 50.50947 161.09175 35501 ft 459 kts 239°
2026-05-06 11:48 50.47302 161.00939 35501 ft 458 kts 239°
2026-05-06 11:48 50.43660 160.92733 35498 ft 458 kts 239°
2026-05-06 11:49 50.40011 160.84540 35503 ft 458 kts 239°
2026-05-06 11:49 50.36388 160.76342 35502 ft 457 kts 240°
2026-05-06 11:50 50.32760 160.68202 35502 ft 456 kts 239°
2026-05-06 11:50 50.29100 160.60094 35504 ft 456 kts 239°
2026-05-06 11:51 50.25440 160.52016 35503 ft 455 kts 239°
2026-05-06 11:51 50.21780 160.43952 35503 ft 455 kts 239°
2026-05-06 11:52 50.18124 160.35913 35504 ft 454 kts 239°
2026-05-06 11:52 50.14470 160.27969 35504 ft 453 kts 239°
2026-05-06 11:53 50.10771 160.19954 35505 ft 452 kts 239°
2026-05-06 11:53 50.07096 160.12014 35503 ft 452 kts 239°
2026-05-06 11:54 50.04040 160.05424 35506 ft 452 kts 239°
2026-05-06 11:54 50.00361 159.97511 35508 ft 452 kts 239°
2026-05-06 11:55 49.96108 159.88219 35507 ft 451 kts 239°
2026-05-06 11:55 49.93066 159.81635 35508 ft 451 kts 239°
2026-05-06 11:56 49.88811 159.72444 35509 ft 450 kts 240°
2026-05-06 11:56 49.85751 159.65843 35515 ft 450 kts 239°
2026-05-06 11:57 49.82064 159.58012 35510 ft 450 kts 239°
2026-05-06 11:57 49.78395 159.50259 35511 ft 449 kts 239°
2026-05-06 11:58 49.74708 159.42485 35512 ft 448 kts 239°
2026-05-06 11:58 49.71029 159.34734 35513 ft 446 kts 239°
2026-05-06 11:59 49.67292 159.27078 35513 ft 446 kts 238°
2026-05-06 11:59 49.63527 159.19470 35514 ft 446 kts 238°
2026-05-06 12:00 49.59762 159.11879 35516 ft 445 kts 239°
2026-05-06 12:00 49.55999 159.04311 35516 ft 445 kts 239°
2026-05-06 12:01 49.52238 158.96767 35518 ft 444 kts 239°
2026-05-06 12:01 49.48512 158.89230 35519 ft 443 kts 239°
2026-05-06 12:02 49.44800 158.81649 35520 ft 443 kts 239°
2026-05-06 12:02 49.41064 158.74103 35521 ft 444 kts 239°
2026-05-06 12:03 49.37316 158.66585 35522 ft 444 kts 239°
2026-05-06 12:03 49.33596 158.59157 35524 ft 444 kts 239°
2026-05-06 12:04 49.29793 158.51590 35525 ft 443 kts 239°
2026-05-06 12:04 49.26036 158.44137 35526 ft 442 kts 239°
2026-05-06 12:05 49.22277 158.36705 35522 ft 442 kts 239°
2026-05-06 12:05 49.18517 158.29288 35524 ft 441 kts 239°
2026-05-06 12:06 49.14758 158.21897 35525 ft 440 kts 239°
2026-05-06 12:06 49.11004 158.14534 35526 ft 439 kts 239°
2026-05-06 12:07 49.07250 158.07193 35528 ft 438 kts 239°
2026-05-06 12:07 49.03495 157.99869 35530 ft 438 kts 239°
2026-05-06 12:08 48.99750 157.92586 35531 ft 436 kts 239°
2026-05-06 12:08 48.96009 157.85330 35532 ft 435 kts 239°
2026-05-06 12:09 48.92275 157.78105 35535 ft 434 kts 239°
2026-05-06 12:09 48.88545 157.70910 35536 ft 433 kts 239°
2026-05-06 12:10 48.84816 157.63735 35537 ft 432 kts 239°
2026-05-06 12:10 48.81089 157.56582 35540 ft 432 kts 239°
2026-05-06 12:11 48.77360 157.49446 35541 ft 431 kts 239°
2026-05-06 12:11 48.73632 157.42330 35543 ft 431 kts 239°
2026-05-06 12:12 48.69932 157.35286 35545 ft 430 kts 239°
2026-05-06 12:12 48.66205 157.28210 35547 ft 430 kts 239°
2026-05-06 12:13 48.62479 157.21156 35548 ft 429 kts 239°
2026-05-06 12:13 48.58747 157.14107 35550 ft 429 kts 239°
2026-05-06 12:14 48.55019 157.07083 35552 ft 429 kts 239°
2026-05-06 12:14 48.51290 157.00078 35554 ft 428 kts 239°
2026-05-06 12:15 48.47559 156.93085 35556 ft 428 kts 239°
2026-05-06 12:15 48.43829 156.86115 35558 ft 427 kts 239°
2026-05-06 12:16 48.40097 156.79158 35561 ft 427 kts 239°
2026-05-06 12:16 48.36367 156.72223 35562 ft 426 kts 239°
2026-05-06 12:17 48.32647 156.65324 35570 ft 424 kts 239°
2026-05-06 12:17 48.28929 156.58447 35566 ft 424 kts 239°
2026-05-06 12:18 48.25216 156.51595 35569 ft 423 kts 239°
2026-05-06 12:18 48.21503 156.44761 35571 ft 422 kts 239°
2026-05-06 12:19 48.17786 156.37937 35573 ft 422 kts 240°
2026-05-06 12:19 48.14071 156.31136 35575 ft 421 kts 240°
2026-05-06 12:20 48.10384 156.24399 35577 ft 421 kts 240°
2026-05-06 12:20 48.06648 156.17593 35579 ft 420 kts 240°
2026-05-06 12:21 48.02960 156.10891 35582 ft 420 kts 240°
2026-05-06 12:21 47.99245 156.04157 35584 ft 420 kts 240°
2026-05-06 12:22 47.95554 155.97482 35586 ft 420 kts 239°
2026-05-06 12:22 47.91802 155.90713 35589 ft 420 kts 239°
2026-05-06 12:23 47.88072 155.84003 35592 ft 420 kts 239°
2026-05-06 12:23 47.84339 155.77302 35594 ft 420 kts 239°
2026-05-06 12:24 47.80604 155.70614 35596 ft 420 kts 239°
2026-05-06 12:24 47.76863 155.63933 35599 ft 420 kts 239°
2026-05-06 12:25 47.73121 155.57267 35601 ft 420 kts 239°
2026-05-06 12:25 47.69372 155.50604 35604 ft 421 kts 239°
2026-05-06 12:26 47.65607 155.43930 35606 ft 422 kts 239°
2026-05-06 12:26 47.61833 155.37255 35609 ft 422 kts 239°
2026-05-06 12:27 47.58054 155.30590 35686 ft 423 kts 239°
2026-05-06 12:27 47.54263 155.23918 35694 ft 424 kts 239°
2026-05-06 12:28 47.50459 155.17240 35697 ft 424 kts 239°
2026-05-06 12:28 47.46654 155.10578 35700 ft 425 kts 238°
2026-05-06 12:29 47.42837 155.03910 35704 ft 425 kts 238°
2026-05-06 12:29 47.39015 154.97251 35706 ft 425 kts 238°
2026-05-06 12:30 47.35188 154.90599 35709 ft 425 kts 238°
2026-05-06 12:30 47.31359 154.83961 35713 ft 425 kts 238°
2026-05-06 12:31 47.27522 154.77324 35712 ft 426 kts 238°
2026-05-06 12:31 47.23676 154.70687 35719 ft 426 kts 238°
2026-05-06 12:32 47.19827 154.64062 35722 ft 426 kts 238°
2026-05-06 12:32 47.15969 154.57440 35725 ft 426 kts 238°
2026-05-06 12:33 47.12131 154.50865 35728 ft 427 kts 238°
2026-05-06 12:33 47.08244 154.44219 35732 ft 424 kts 237°
2026-05-06 12:34 47.04420 154.37704 35738 ft 419 kts 237°
2026-05-06 12:34 47.00630 154.31259 35737 ft 421 kts 237°
2026-05-06 12:35 46.96803 154.24767 35741 ft 422 kts 237°
2026-05-06 12:35 46.92960 154.18263 35743 ft 422 kts 237°
2026-05-06 12:36 46.89112 154.11766 35746 ft 423 kts 237°
2026-05-06 12:36 46.85260 154.05278 35748 ft 422 kts 237°
2026-05-06 12:37 46.81403 153.98796 35752 ft 423 kts 236°
2026-05-06 12:37 46.77540 153.92320 35754 ft 423 kts 236°
2026-05-06 12:38 46.73672 153.85851 35757 ft 423 kts 236°
2026-05-06 12:38 46.69809 153.79406 35760 ft 424 kts 236°
2026-05-06 12:39 46.65915 153.72925 35763 ft 424 kts 236°
2026-05-06 12:39 46.62023 153.66463 35765 ft 424 kts 236°
2026-05-06 12:40 46.58128 153.60010 35768 ft 424 kts 236°
2026-05-06 12:40 46.54276 153.53642 35771 ft 424 kts 236°
2026-05-06 12:41 46.50330 153.47136 35774 ft 424 kts 236°
2026-05-06 12:41 46.47085 153.41798 35776 ft 424 kts 236°
2026-05-06 12:42 46.42521 153.34287 35779 ft 424 kts 236°
2026-05-06 12:42 46.38657 153.27897 35782 ft 424 kts 236°
2026-05-06 12:43 46.35376 153.22544 35783 ft 424 kts 235°
2026-05-06 12:43 46.31452 153.16172 35786 ft 425 kts 235°
2026-05-06 12:44 46.27517 153.09796 35788 ft 425 kts 235°
2026-05-06 12:44 46.23581 153.03426 35790 ft 425 kts 235°
2026-05-06 12:45 46.19634 152.97067 35794 ft 426 kts 235°
2026-05-06 12:46 46.13680 152.87624 35797 ft 426 kts 234°
2026-05-06 12:46 46.09687 152.81313 35801 ft 426 kts 234°
2026-05-06 12:47 46.05699 152.75024 35801 ft 425 kts 234°
2026-05-06 12:47 46.01707 152.68743 35804 ft 426 kts 234°
2026-05-06 12:48 45.97709 152.62441 35806 ft 428 kts 234°
2026-05-06 12:48 45.93714 152.56055 35808 ft 431 kts 234°
2026-05-06 12:49 45.89695 152.49691 35811 ft 429 kts 234°
2026-05-06 12:49 45.85677 152.43367 35817 ft 428 kts 234°
2026-05-06 12:50 45.81656 152.37063 35815 ft 429 kts 234°
2026-05-06 12:50 45.77626 152.30764 35817 ft 429 kts 234°
2026-05-06 12:51 45.73589 152.24473 35822 ft 429 kts 234°
2026-05-06 12:51 45.69553 152.18196 35821 ft 429 kts 234°
2026-05-06 12:52 45.65510 152.11924 35822 ft 429 kts 234°
2026-05-06 12:52 45.61464 152.05661 35824 ft 429 kts 234°
2026-05-06 12:53 45.57408 151.99399 35826 ft 430 kts 233°
2026-05-06 12:53 45.53347 151.93142 35828 ft 430 kts 233°
2026-05-06 12:54 45.49271 151.86877 35830 ft 431 kts 233°
2026-05-06 12:54 45.45192 151.80622 35832 ft 431 kts 233°
2026-05-06 12:55 45.41110 151.74377 35834 ft 431 kts 233°
2026-05-06 12:55 45.37021 151.68134 35835 ft 431 kts 233°
2026-05-06 12:56 45.32925 151.61896 35837 ft 431 kts 233°
2026-05-06 12:56 45.28827 151.55668 35839 ft 432 kts 233°
2026-05-06 12:57 45.24720 151.49442 35840 ft 432 kts 233°
2026-05-06 12:57 45.20629 151.43252 35842 ft 433 kts 233°
2026-05-06 12:58 45.16503 151.37025 35844 ft 434 kts 232°
2026-05-06 12:58 45.12369 151.30801 35850 ft 433 kts 232°
2026-05-06 12:59 45.08237 151.24592 35847 ft 433 kts 232°
2026-05-06 12:59 45.04096 151.18384 35848 ft 434 kts 232°
2026-05-06 13:00 44.99982 151.12230 35850 ft 435 kts 232°
2026-05-06 13:00 44.95793 151.05978 35851 ft 435 kts 232°
2026-05-06 13:01 44.91624 150.99770 35852 ft 436 kts 232°
2026-05-06 13:01 44.87453 150.93573 35854 ft 436 kts 232°
2026-05-06 13:02 44.83274 150.87380 35856 ft 436 kts 232°
2026-05-06 13:02 44.79092 150.81195 35857 ft 437 kts 232°
2026-05-06 13:03 44.74899 150.75008 35857 ft 437 kts 232°
2026-05-06 13:03 44.70701 150.68826 35859 ft 437 kts 232°
2026-05-06 13:04 44.66497 150.62651 35888 ft 438 kts 231°
2026-05-06 13:04 44.62282 150.56472 35887 ft 438 kts 231°
2026-05-06 13:05 44.58057 150.50295 35891 ft 438 kts 231°
2026-05-06 13:05 44.53830 150.44126 35891 ft 439 kts 231°
2026-05-06 13:06 44.49590 150.37952 35892 ft 440 kts 231°
2026-05-06 13:06 44.45363 150.31813 35890 ft 440 kts 231°
2026-05-06 13:07 44.41107 150.25643 35895 ft 441 kts 231°
2026-05-06 13:07 44.36842 150.19475 35896 ft 441 kts 231°
2026-05-06 13:08 44.32568 150.13307 35898 ft 442 kts 231°
2026-05-06 13:08 44.28283 150.07138 35899 ft 443 kts 231°
2026-05-06 13:09 44.23993 150.00975 35900 ft 443 kts 231°
2026-05-06 13:09 44.19696 149.94817 35901 ft 443 kts 231°
2026-05-06 13:10 44.15397 149.88669 35903 ft 443 kts 231°
2026-05-06 13:10 44.11096 149.82531 35904 ft 443 kts 230°
2026-05-06 13:11 44.06790 149.76400 35905 ft 443 kts 230°
2026-05-06 13:11 44.02481 149.70278 35906 ft 443 kts 230°
2026-05-06 13:12 43.98172 149.64170 35930 ft 443 kts 230°
2026-05-06 13:12 43.93860 149.58072 35934 ft 442 kts 230°
2026-05-06 13:13 43.89549 149.51988 35936 ft 442 kts 230°
2026-05-06 13:13 43.85238 149.45916 35936 ft 442 kts 230°
2026-05-06 13:14 43.80920 149.39850 35937 ft 442 kts 230°
2026-05-06 13:14 43.76605 149.33799 35934 ft 441 kts 230°
2026-05-06 13:15 43.72322 149.27807 35939 ft 441 kts 230°
2026-05-06 13:15 43.68007 149.21785 35939 ft 441 kts 230°
2026-05-06 13:16 43.63691 149.15772 35941 ft 441 kts 230°
2026-05-06 13:16 43.59375 149.09774 35947 ft 440 kts 230°
2026-05-06 13:17 43.55057 149.03785 35942 ft 440 kts 230°
2026-05-06 13:17 43.50741 148.97810 35943 ft 440 kts 230°
2026-05-06 13:18 43.46417 148.91840 35943 ft 440 kts 230°
2026-05-06 13:18 43.42122 148.85922 35940 ft 440 kts 230°
2026-05-06 13:19 43.37758 148.79919 35945 ft 440 kts 230°
2026-05-06 13:19 43.33422 148.73970 35946 ft 440 kts 230°
2026-05-06 13:20 43.29083 148.68029 35946 ft 441 kts 230°
2026-05-06 13:20 43.24742 148.62098 35946 ft 440 kts 230°
2026-05-06 13:21 43.20402 148.56181 35947 ft 440 kts 230°
2026-05-06 13:21 43.16058 148.50271 35948 ft 440 kts 230°
2026-05-06 13:22 43.11710 148.44368 35949 ft 440 kts 230°
2026-05-06 13:22 43.07364 148.38480 35947 ft 440 kts 230°
2026-05-06 13:23 43.03014 148.32600 35947 ft 440 kts 230°
2026-05-06 13:23 42.98662 148.26728 35948 ft 440 kts 230°
2026-05-06 13:24 42.94306 148.20863 35948 ft 440 kts 229°
2026-05-06 13:24 42.89950 148.15012 35948 ft 439 kts 229°
2026-05-06 13:25 42.85588 148.09164 35949 ft 440 kts 229°
2026-05-06 13:25 42.81222 148.03323 35950 ft 440 kts 229°
2026-05-06 13:26 42.76857 147.97495 35964 ft 440 kts 229°
2026-05-06 13:26 42.72484 147.91670 35965 ft 440 kts 229°
2026-05-06 13:27 42.68106 147.85849 35966 ft 440 kts 229°
2026-05-06 13:27 42.64509 147.81075 35966 ft 440 kts 229°
2026-05-06 13:28 42.59398 147.74259 35966 ft 440 kts 229°
2026-05-06 13:28 42.55017 147.68462 35967 ft 440 kts 229°
2026-05-06 13:29 42.51337 147.63622 35967 ft 440 kts 229°
2026-05-06 13:29 42.46938 147.57851 35968 ft 440 kts 229°
2026-05-06 13:30 42.42535 147.52081 35968 ft 440 kts 229°
2026-05-06 13:30 42.38138 147.46320 35969 ft 440 kts 229°
2026-05-06 13:31 42.33733 147.40563 35969 ft 440 kts 229°
2026-05-06 13:31 42.29328 147.34820 35969 ft 440 kts 229°
2026-05-06 13:32 42.24945 147.29117 35970 ft 440 kts 229°
2026-05-06 13:32 42.20534 147.23386 35970 ft 440 kts 229°
2026-05-06 13:33 42.16118 147.17657 35971 ft 441 kts 229°
2026-05-06 13:33 42.11733 147.11875 35971 ft 441 kts 229°
2026-05-06 13:34 42.07322 147.06131 35972 ft 441 kts 229°
2026-05-06 13:34 42.02883 147.00408 35972 ft 443 kts 229°
2026-05-06 13:35 41.98434 146.94686 35976 ft 442 kts 228°
2026-05-06 13:35 41.94019 146.89016 35972 ft 437 kts 229°
2026-05-06 13:36 41.89656 146.83412 35973 ft 432 kts 229°
2026-05-06 13:36 41.85300 146.77839 35974 ft 433 kts 229°
2026-05-06 13:37 41.80932 146.72264 35974 ft 434 kts 229°
2026-05-06 13:37 41.76555 146.66690 35975 ft 434 kts 229°
2026-05-06 13:38 41.72170 146.61118 35975 ft 435 kts 229°
2026-05-06 13:38 41.67784 146.55554 35975 ft 435 kts 228°
2026-05-06 13:39 41.63419 146.49957 35976 ft 435 kts 229°
2026-05-06 13:39 41.59042 146.44363 35976 ft 435 kts 229°
2026-05-06 13:40 41.54655 146.38790 35977 ft 435 kts 228°
2026-05-06 13:40 41.50263 146.33232 35978 ft 435 kts 228°
2026-05-06 13:41 41.45871 146.27686 35978 ft 434 kts 228°
2026-05-06 13:41 41.41479 146.22155 35974 ft 434 kts 228°
2026-05-06 13:42 41.37094 146.16643 35979 ft 433 kts 229°
2026-05-06 13:42 41.32744 146.11186 35979 ft 431 kts 229°
2026-05-06 13:43 41.28389 146.05734 35981 ft 429 kts 229°
2026-05-06 13:43 41.24045 146.00305 35981 ft 428 kts 229°
2026-05-06 13:44 41.19707 145.94895 35982 ft 429 kts 229°
2026-05-06 13:44 41.15361 145.89485 35983 ft 427 kts 229°
2026-05-06 13:45 41.11036 145.84111 35984 ft 424 kts 229°
2026-05-06 13:45 41.04604 145.76137 35985 ft 421 kts 229°
2026-05-06 13:46 41.00333 145.70856 35985 ft 419 kts 229°
2026-05-06 13:46 40.96071 145.65594 35986 ft 418 kts 229°
2026-05-06 13:47 40.91833 145.60373 35986 ft 415 kts 229°
2026-05-06 13:47 40.87613 145.55182 35987 ft 414 kts 229°
2026-05-06 13:48 40.83400 145.50011 35989 ft 413 kts 229°
2026-05-06 13:48 40.79190 145.44851 35989 ft 412 kts 229°
2026-05-06 13:49 40.74994 145.39717 35992 ft 411 kts 229°
2026-05-06 13:49 40.70808 145.34607 35994 ft 410 kts 229°
2026-05-06 13:50 40.66623 145.29505 35996 ft 410 kts 229°
2026-05-06 13:50 40.62453 145.24387 35985 ft 410 kts 229°
2026-05-06 13:51 40.58263 145.19294 36000 ft 409 kts 229°
2026-05-06 13:51 40.54060 145.14205 35990 ft 411 kts 229°
2026-05-06 13:52 40.49850 145.09136 36032 ft 409 kts 229°
2026-05-06 13:52 40.45656 145.04071 36011 ft 409 kts 229°
2026-05-06 13:53 40.41734 144.98805 36001 ft 402 kts 237°
2026-05-06 13:53 40.38624 144.92734 36003 ft 400 kts 242°
2026-05-06 13:54 40.35783 144.86515 36005 ft 398 kts 242°
2026-05-06 13:54 40.32899 144.80274 36008 ft 401 kts 242°
2026-05-06 13:55 40.29986 144.74031 36009 ft 401 kts 242°
2026-05-06 13:55 40.27065 144.67808 36013 ft 400 kts 242°
2026-05-06 13:56 40.24138 144.61589 36005 ft 401 kts 242°
2026-05-06 13:56 40.21251 144.55360 36026 ft 400 kts 242°
2026-05-06 13:57 40.18342 144.49140 35995 ft 402 kts 242°
2026-05-06 13:57 40.15435 144.42945 35993 ft 400 kts 241°
2026-05-06 13:58 40.12512 144.36755 35986 ft 400 kts 241°
2026-05-06 13:58 40.09604 144.30556 35984 ft 400 kts 241°
2026-05-06 13:59 40.06676 144.24381 36002 ft 400 kts 241°
2026-05-06 13:59 40.03731 144.18218 36049 ft 402 kts 241°
2026-05-06 14:00 40.00787 144.12051 36017 ft 400 kts 241°
2026-05-06 14:00 39.97843 144.05908 36046 ft 399 kts 241°
2026-05-06 14:01 39.94902 143.99769 36032 ft 399 kts 241°
2026-05-06 14:01 39.91975 143.93684 36022 ft 400 kts 241°
2026-05-06 14:02 39.89020 143.87562 36052 ft 399 kts 241°
2026-05-06 14:02 39.86051 143.81432 36042 ft 400 kts 241°
2026-05-06 14:03 39.83089 143.75328 36072 ft 398 kts 241°
2026-05-06 14:03 39.80136 143.69239 36065 ft 396 kts 241°
2026-05-06 14:04 39.77179 143.63164 36037 ft 400 kts 241°
2026-05-06 14:04 39.74251 143.57035 36041 ft 400 kts 241°
2026-05-06 14:05 39.71301 143.50915 36082 ft 399 kts 241°
2026-05-06 14:05 39.68342 143.44810 36068 ft 398 kts 241°
2026-05-06 14:06 39.65387 143.38743 36054 ft 397 kts 241°
2026-05-06 14:06 39.62436 143.32698 36056 ft 396 kts 241°
2026-05-06 14:07 39.59478 143.26656 36057 ft 397 kts 241°
2026-05-06 14:07 39.56538 143.20661 36058 ft 397 kts 240°
2026-05-06 14:08 39.53570 143.14622 36056 ft 398 kts 240°
2026-05-06 14:08 39.50597 143.08582 36057 ft 398 kts 240°
2026-05-06 14:09 39.47621 143.02549 36058 ft 398 kts 240°
2026-05-06 14:09 39.44640 142.96517 36059 ft 398 kts 240°
2026-05-06 14:10 39.41655 142.90488 36068 ft 398 kts 240°
2026-05-06 14:10 39.38683 142.84435 36070 ft 399 kts 240°
2026-05-06 14:11 39.35690 142.78398 36071 ft 399 kts 240°
2026-05-06 14:11 39.32677 142.72365 36072 ft 400 kts 240°
2026-05-06 14:12 39.29660 142.66341 36073 ft 400 kts 240°
2026-05-06 14:12 39.26635 142.60309 36074 ft 400 kts 240°
2026-05-06 14:13 39.23601 142.54282 36073 ft 401 kts 239°
2026-05-06 14:13 39.20148 142.48614 36144 ft 403 kts 234°
2026-05-06 14:14 39.18310 142.45883 36345 ft 404 kts 233°
2026-05-06 14:14 39.16469 142.43174 36715 ft 399 kts 233°
2026-05-06 14:14 39.14655 142.40488 37070 ft 396 kts 233°
2026-05-06 14:14 39.12878 142.37849 37286 ft 396 kts 234°
2026-05-06 14:15 39.11050 142.35127 37451 ft 396 kts 234°
2026-05-06 14:15 39.09258 142.32456 37669 ft 394 kts 234°
2026-05-06 14:15 39.07497 142.29828 37918 ft 392 kts 234°
2026-05-06 14:15 39.05697 142.27143 38044 ft 391 kts 234°
2026-05-06 14:16 39.02167 142.21879 38076 ft 390 kts 234°
2026-05-06 14:16 38.98655 142.16592 38078 ft 388 kts 234°
2026-05-06 14:17 38.95157 142.11321 38079 ft 387 kts 234°
2026-05-06 14:17 38.91663 142.06089 38078 ft 385 kts 234°
2026-05-06 14:18 38.88174 142.00883 38078 ft 383 kts 234°
2026-05-06 14:18 38.84692 141.95701 38080 ft 384 kts 234°
2026-05-06 14:19 38.81788 141.91390 38079 ft 384 kts 234°
2026-05-06 14:19 38.78300 141.86217 38079 ft 382 kts 234°
2026-05-06 14:20 38.74806 141.81045 38080 ft 380 kts 234°
2026-05-06 14:20 38.71370 141.75967 38080 ft 379 kts 234°
2026-05-06 14:21 38.67922 141.70879 38078 ft 378 kts 234°
2026-05-06 14:21 38.64473 141.65799 38080 ft 378 kts 234°
2026-05-06 14:22 38.61030 141.60735 38081 ft 377 kts 234°
2026-05-06 14:22 38.57589 141.55683 38081 ft 377 kts 234°
2026-05-06 14:23 38.54149 141.50640 38081 ft 376 kts 234°
2026-05-06 14:23 38.50717 141.45616 38081 ft 376 kts 234°
2026-05-06 14:24 38.47272 141.40582 38081 ft 376 kts 234°
2026-05-06 14:24 38.43831 141.35559 38082 ft 376 kts 234°
2026-05-06 14:25 38.40389 141.30546 38082 ft 376 kts 234°
2026-05-06 14:25 38.36978 141.25584 38082 ft 376 kts 234°
2026-05-06 14:26 38.33506 141.20505 38082 ft 376 kts 234°
2026-05-06 14:26 38.30055 141.15481 38082 ft 377 kts 234°
2026-05-06 14:27 38.26608 141.10500 38082 ft 377 kts 234°
2026-05-06 14:27 38.23136 141.05496 38083 ft 377 kts 234°
2026-05-06 14:28 38.19640 141.00465 38083 ft 377 kts 234°
2026-05-06 14:28 38.16190 140.95503 38082 ft 377 kts 234°
2026-05-06 14:29 38.14791 140.92747 38093 ft 370 kts 250°
2026-05-06 14:29 38.14015 140.89630 38085 ft 371 kts 255°
2026-05-06 14:29 38.13028 140.83202 38082 ft 371 kts 259°
2026-05-06 14:30 38.12387 140.76692 38083 ft 372 kts 260°
2026-05-06 14:30 38.11778 140.70171 38085 ft 373 kts 260°
2026-05-06 14:31 38.11157 140.63643 38086 ft 372 kts 260°
2026-05-06 14:31 38.10531 140.57127 38088 ft 371 kts 260°
2026-05-06 14:32 38.09903 140.50633 38091 ft 370 kts 260°
2026-05-06 14:32 38.09311 140.44149 38093 ft 369 kts 260°
2026-05-06 14:33 38.08710 140.37684 38095 ft 368 kts 260°
2026-05-06 14:33 38.08094 140.31243 38096 ft 367 kts 259°
2026-05-06 14:34 38.07470 140.24817 38098 ft 367 kts 259°
2026-05-06 14:34 38.06843 140.18408 38099 ft 366 kts 259°
2026-05-06 14:35 38.06242 140.11998 38104 ft 366 kts 259°
2026-05-06 14:35 38.05614 140.05603 38101 ft 365 kts 259°
2026-05-06 14:36 38.04971 139.99222 38100 ft 365 kts 259°
2026-05-06 14:36 38.04320 139.92836 38100 ft 365 kts 259°
2026-05-06 14:37 38.03667 139.86451 38099 ft 365 kts 259°
2026-05-06 14:37 38.03013 139.80056 38098 ft 366 kts 259°
2026-05-06 14:38 38.02356 139.73649 38099 ft 367 kts 259°
2026-05-06 14:38 38.01690 139.67220 38097 ft 368 kts 259°
2026-05-06 14:39 38.01015 139.60763 38095 ft 371 kts 259°
2026-05-06 14:39 38.00333 139.54270 38092 ft 373 kts 259°
2026-05-06 14:40 37.99690 139.47736 38090 ft 374 kts 260°
2026-05-06 14:40 37.99026 139.41219 38086 ft 373 kts 259°
2026-05-06 14:41 37.98333 139.34693 38085 ft 375 kts 259°
2026-05-06 14:41 37.97627 139.28126 38083 ft 377 kts 259°
2026-05-06 14:42 37.96919 139.21578 38082 ft 379 kts 259°
2026-05-06 14:42 37.96197 139.14892 38082 ft 381 kts 259°
2026-05-06 14:43 37.94810 139.08432 38086 ft 382 kts 249°
2026-05-06 14:43 37.92734 139.02281 38083 ft 383 kts 246°
2026-05-06 14:44 37.90513 138.96076 38083 ft 385 kts 246°
2026-05-06 14:45 37.87240 138.86763 38084 ft 390 kts 246°
2026-05-06 14:45 37.85040 138.80477 38085 ft 391 kts 246°
2026-05-06 14:46 37.82874 138.74146 38085 ft 393 kts 247°
2026-05-06 14:46 37.80683 138.67789 38083 ft 395 kts 246°
2026-05-06 14:47 37.78450 138.61423 38086 ft 397 kts 246°
2026-05-06 14:47 37.76202 138.55046 38086 ft 398 kts 246°
2026-05-06 14:48 37.73940 138.48640 38086 ft 400 kts 246°
2026-05-06 14:48 37.71668 138.42209 38087 ft 402 kts 246°
2026-05-06 14:49 37.69387 138.35762 38086 ft 402 kts 246°
2026-05-06 14:49 37.67091 138.29305 38088 ft 403 kts 246°
2026-05-06 14:50 37.64789 138.22853 38090 ft 404 kts 246°
2026-05-06 14:50 37.62483 138.16402 38090 ft 404 kts 246°
2026-05-06 14:51 37.60163 138.09930 38090 ft 404 kts 246°
2026-05-06 14:51 37.57846 138.03475 38090 ft 404 kts 246°
2026-05-06 14:52 37.55553 137.97002 38090 ft 405 kts 246°
2026-05-06 14:52 37.53273 137.90561 38090 ft 407 kts 246°
2026-05-06 14:53 37.50924 137.83986 38089 ft 407 kts 246°
2026-05-06 14:53 37.48592 137.77495 38088 ft 407 kts 246°
2026-05-06 14:54 37.46252 137.71001 38088 ft 407 kts 246°
2026-05-06 14:54 37.43912 137.64521 38087 ft 407 kts 246°
2026-05-06 14:55 37.41566 137.58043 38087 ft 407 kts 246°
2026-05-06 14:55 37.39213 137.51559 38086 ft 408 kts 246°
2026-05-06 14:56 37.36855 137.45078 38085 ft 407 kts 246°
2026-05-06 14:56 37.34518 137.38665 38084 ft 407 kts 246°
2026-05-06 14:57 37.32139 137.32151 38084 ft 408 kts 246°
2026-05-06 14:57 37.29787 137.25723 38083 ft 407 kts 246°
2026-05-06 14:58 37.27415 137.19256 38081 ft 408 kts 245°
2026-05-06 14:58 37.25035 137.12782 38081 ft 408 kts 245°
2026-05-06 14:59 37.22666 137.06296 38081 ft 409 kts 246°
2026-05-06 14:59 37.20288 136.99807 38081 ft 409 kts 245°
2026-05-06 15:00 37.17883 136.93326 38080 ft 410 kts 245°
2026-05-06 15:00 37.15469 136.86843 38082 ft 411 kts 245°
2026-05-06 15:01 37.13049 136.80358 38081 ft 412 kts 245°
2026-05-06 15:01 37.10628 136.73863 38057 ft 412 kts 245°
2026-05-06 15:02 37.08206 136.67373 38064 ft 410 kts 245°
2026-05-06 15:02 37.05770 136.60898 38070 ft 411 kts 245°
2026-05-06 15:03 37.03331 136.54430 38075 ft 411 kts 245°
2026-05-06 15:03 37.00892 136.47974 38074 ft 410 kts 245°
2026-05-06 15:04 36.98865 136.42621 38075 ft 410 kts 245°
2026-05-06 15:04 36.96425 136.36189 38083 ft 409 kts 244°
2026-05-06 15:05 36.94014 136.29759 38084 ft 408 kts 245°
2026-05-06 15:05 36.91619 136.23348 38084 ft 407 kts 244°
2026-05-06 15:06 36.89213 136.16966 38084 ft 405 kts 244°
2026-05-06 15:06 36.86804 136.10610 38084 ft 404 kts 244°
2026-05-06 15:07 36.84397 136.04283 38084 ft 403 kts 244°
2026-05-06 15:07 36.81994 135.97980 38082 ft 402 kts 244°
2026-05-06 15:08 36.79561 135.91613 38086 ft 410 kts 244°
2026-05-06 15:08 36.77100 135.85186 38085 ft 410 kts 244°
2026-05-06 15:09 36.74655 135.78816 38085 ft 408 kts 244°
2026-05-06 15:09 36.72201 135.72435 38085 ft 408 kts 244°
2026-05-06 15:10 36.69746 135.66063 38081 ft 408 kts 244°
2026-05-06 15:10 36.67288 135.59696 38081 ft 408 kts 244°
2026-05-06 15:11 36.64819 135.53315 38080 ft 409 kts 244°
2026-05-06 15:11 36.62344 135.46930 38081 ft 410 kts 244°
2026-05-06 15:12 36.59856 135.40524 38081 ft 412 kts 244°
2026-05-06 15:12 36.57355 135.34100 38081 ft 413 kts 244°
2026-05-06 15:13 36.54858 135.27697 38081 ft 415 kts 244°
2026-05-06 15:13 36.52325 135.21217 38081 ft 418 kts 244°
2026-05-06 15:14 36.49777 135.14708 38080 ft 420 kts 244°
2026-05-06 15:14 36.47209 135.08165 38079 ft 422 kts 245°
2026-05-06 15:15 36.44624 135.01591 38081 ft 425 kts 245°
2026-05-06 15:15 36.42018 134.94975 38079 ft 428 kts 245°
2026-05-06 15:16 36.39391 134.88321 38080 ft 431 kts 245°
2026-05-06 15:16 36.36768 134.81619 38085 ft 433 kts 245°
2026-05-06 15:17 36.34102 134.74882 38091 ft 436 kts 245°
2026-05-06 15:17 36.31403 134.68114 38090 ft 439 kts 245°
2026-05-06 15:18 36.28700 134.61353 38090 ft 442 kts 245°
2026-05-06 15:18 36.25959 134.54503 38089 ft 445 kts 245°
2026-05-06 15:19 36.23061 134.47712 38088 ft 448 kts 242°
2026-05-06 15:19 36.19774 134.41143 38088 ft 450 kts 240°
2026-05-06 15:20 36.16452 134.34548 38087 ft 452 kts 240°
2026-05-06 15:20 36.13139 134.27923 38084 ft 453 kts 241°
2026-05-06 15:21 36.09865 134.21252 38083 ft 454 kts 241°
2026-05-06 15:21 36.06544 134.14598 38088 ft 456 kts 240°
2026-05-06 15:22 36.03225 134.07991 38095 ft 454 kts 241°
2026-05-06 15:22 35.99890 134.01365 38093 ft 455 kts 240°
2026-05-06 15:23 35.96969 133.94488 38095 ft 449 kts 257°
2026-05-06 15:23 35.95953 133.86908 38085 ft 449 kts 265°
2026-05-06 15:24 35.95611 133.79143 38080 ft 450 kts 268°
2026-05-06 15:24 35.95403 133.71419 38082 ft 450 kts 268°
2026-05-06 15:25 35.95165 133.63765 38082 ft 449 kts 268°
2026-05-06 15:25 35.94907 133.56061 38083 ft 449 kts 268°
2026-05-06 15:26 35.94665 133.48369 38082 ft 448 kts 268°
2026-05-06 15:26 35.94443 133.40687 38082 ft 448 kts 268°
2026-05-06 15:27 35.94195 133.32996 38082 ft 449 kts 268°
2026-05-06 15:27 35.93933 133.25291 38082 ft 449 kts 268°
2026-05-06 15:28 35.93662 133.17591 38082 ft 449 kts 267°
2026-05-06 15:28 35.93385 133.09894 38082 ft 449 kts 267°
2026-05-06 15:29 35.93102 133.02194 38082 ft 449 kts 267°
2026-05-06 15:29 35.92814 132.94484 38082 ft 450 kts 267°
2026-05-06 15:30 35.92520 132.86760 38081 ft 451 kts 267°
2026-05-06 15:30 35.92222 132.79064 38087 ft 451 kts 267°
2026-05-06 15:31 35.91914 132.71302 38071 ft 453 kts 267°
2026-05-06 15:31 35.91608 132.63558 38100 ft 450 kts 268°
2026-05-06 15:32 35.91132 132.51929 38087 ft 455 kts 268°
2026-05-06 15:32 35.90811 132.44163 38084 ft 454 kts 268°
2026-05-06 15:33 35.90482 132.36360 38085 ft 456 kts 268°
2026-05-06 15:33 35.90149 132.28594 38065 ft 457 kts 268°
2026-05-06 15:34 35.89807 132.20788 38063 ft 457 kts 268°
2026-05-06 15:34 35.89460 132.12927 38053 ft 457 kts 268°
2026-05-06 15:35 35.89108 132.05096 38052 ft 457 kts 268°
2026-05-06 15:35 35.88752 131.97268 38052 ft 457 kts 268°
2026-05-06 15:36 35.88391 131.89435 38052 ft 457 kts 268°
2026-05-06 15:36 35.88024 131.81604 38052 ft 457 kts 268°
2026-05-06 15:37 35.87652 131.73778 38051 ft 457 kts 268°
2026-05-06 15:37 35.87277 131.65948 38050 ft 457 kts 268°
2026-05-06 15:38 35.86895 131.58142 38051 ft 456 kts 268°
2026-05-06 15:38 35.86512 131.50382 38050 ft 457 kts 268°
2026-05-06 15:39 35.86120 131.42569 38050 ft 457 kts 268°
2026-05-06 15:39 35.85724 131.34760 38049 ft 456 kts 268°
2026-05-06 15:40 35.85324 131.26972 38048 ft 455 kts 268°
2026-05-06 15:40 35.84921 131.19198 38055 ft 454 kts 268°
2026-05-06 15:41 35.84516 131.11437 38054 ft 453 kts 268°
2026-05-06 15:41 35.84133 131.03697 38054 ft 452 kts 268°
2026-05-06 15:42 35.83712 130.95988 38053 ft 450 kts 268°
2026-05-06 15:42 35.83280 130.88296 38056 ft 449 kts 268°
2026-05-06 15:43 35.82847 130.80627 38055 ft 448 kts 268°
2026-05-06 15:43 35.82517 130.72990 38055 ft 444 kts 274°
2026-05-06 15:44 35.83152 130.65441 38055 ft 442 kts 279°
2026-05-06 15:44 35.84152 130.57975 38055 ft 440 kts 280°
2026-05-06 15:45 35.85116 130.50543 38055 ft 438 kts 280°
2026-05-06 15:45 35.86049 130.43134 38059 ft 437 kts 279°
2026-05-06 15:46 35.86968 130.35743 38059 ft 435 kts 279°
2026-05-06 15:46 35.87895 130.28378 38059 ft 434 kts 280°
2026-05-06 15:47 35.88842 130.21029 38059 ft 434 kts 280°
2026-05-06 15:47 35.89785 130.13690 38048 ft 433 kts 279°
2026-05-06 15:48 35.90683 130.06346 38045 ft 432 kts 279°
2026-05-06 15:48 35.91568 129.99018 38062 ft 432 kts 279°
2026-05-06 15:49 35.92448 129.91689 38067 ft 432 kts 279°
2026-05-06 15:49 35.93329 129.84352 38067 ft 432 kts 279°
2026-05-06 15:50 35.94229 129.77020 38068 ft 433 kts 279°
2026-05-06 15:50 35.95114 129.69668 38066 ft 433 kts 279°
2026-05-06 15:51 35.95980 129.62311 38066 ft 433 kts 279°
2026-05-06 15:51 35.96841 129.54956 38066 ft 433 kts 279°
2026-05-06 15:52 35.98244 129.47775 38078 ft 433 kts 294°
2026-05-06 15:52 36.01217 129.41352 38028 ft 436 kts 301°
2026-05-06 15:53 36.04693 129.35256 38009 ft 432 kts 303°
2026-05-06 15:53 36.08199 129.29250 38005 ft 431 kts 303°
2026-05-06 15:54 36.11684 129.23202 38017 ft 432 kts 302°
2026-05-06 15:54 36.15165 129.17147 38029 ft 432 kts 303°
2026-05-06 15:55 36.18682 129.11127 38028 ft 431 kts 302°
2026-05-06 15:55 36.21567 129.06100 38029 ft 431 kts 302°
2026-05-06 15:56 36.25027 129.00034 38029 ft 431 kts 302°
2026-05-06 15:56 36.28479 128.93968 38029 ft 430 kts 302°
2026-05-06 15:57 36.31932 128.87900 38034 ft 431 kts 302°
2026-05-06 15:57 36.35379 128.81832 38035 ft 430 kts 302°
2026-05-06 15:58 36.38823 128.75758 38036 ft 430 kts 301°
2026-05-06 15:58 36.42257 128.69688 38017 ft 430 kts 301°
2026-05-06 15:59 36.45703 128.63625 38008 ft 430 kts 302°
2026-05-06 15:59 36.49162 128.57564 38031 ft 430 kts 301°
2026-05-06 16:00 36.52592 128.51476 37590 ft 429 kts 301°
2026-05-06 16:00 36.54298 128.48436 36895 ft 429 kts 301°
2026-05-06 16:00 36.56004 128.45395 36122 ft 429 kts 301°
2026-05-06 16:01 36.57714 128.42344 35361 ft 430 kts 301°
2026-05-06 16:01 36.59419 128.39300 34734 ft 427 kts 301°
2026-05-06 16:01 36.61112 128.36278 34150 ft 423 kts 301°
2026-05-06 16:01 36.62781 128.33299 33586 ft 420 kts 301°
2026-05-06 16:02 36.64463 128.30322 33017 ft 417 kts 301°
2026-05-06 16:02 36.66145 128.27394 32454 ft 414 kts 301°
2026-05-06 16:02 36.67805 128.24483 31898 ft 411 kts 301°
2026-05-06 16:02 36.69451 128.21589 31346 ft 408 kts 300°
2026-05-06 16:03 36.71087 128.18713 30797 ft 405 kts 300°
2026-05-06 16:03 36.72707 128.15856 30242 ft 403 kts 300°
2026-05-06 16:03 36.74330 128.13019 29702 ft 400 kts 300°
2026-05-06 16:03 36.75901 128.10258 29191 ft 397 kts 300°
2026-05-06 16:04 36.77524 128.07393 28656 ft 395 kts 300°
2026-05-06 16:04 36.79079 128.04643 28144 ft 392 kts 300°
2026-05-06 16:04 36.80645 128.01869 27632 ft 389 kts 300°
2026-05-06 16:04 36.82199 127.99119 27128 ft 386 kts 300°
2026-05-06 16:05 36.83739 127.96392 26637 ft 383 kts 300°
2026-05-06 16:05 36.85271 127.93681 26140 ft 381 kts 300°
2026-05-06 16:05 36.86805 127.90999 25642 ft 378 kts 300°
2026-05-06 16:05 36.88319 127.88329 25144 ft 375 kts 300°
2026-05-06 16:06 36.89814 127.85676 24659 ft 372 kts 300°
2026-05-06 16:06 36.91298 127.83034 24174 ft 370 kts 300°
2026-05-06 16:06 36.92768 127.80415 23688 ft 367 kts 300°
2026-05-06 16:06 36.94229 127.77806 23205 ft 365 kts 300°
2026-05-06 16:07 36.95677 127.75220 22732 ft 362 kts 300°
2026-05-06 16:07 36.97116 127.72648 22259 ft 359 kts 300°
2026-05-06 16:07 36.98543 127.70097 21786 ft 357 kts 300°
2026-05-06 16:07 36.99963 127.67561 21314 ft 354 kts 300°
2026-05-06 16:08 37.01286 127.64994 20844 ft 347 kts 292°
2026-05-06 16:08 37.02169 127.62216 20399 ft 341 kts 285°
2026-05-06 16:08 37.02816 127.59375 19930 ft 338 kts 281°
2026-05-06 16:08 37.03331 127.56521 19465 ft 335 kts 279°
2026-05-06 16:09 37.03782 127.53672 19005 ft 333 kts 278°
2026-05-06 16:09 37.04241 127.50839 18549 ft 331 kts 279°
2026-05-06 16:09 37.04714 127.48031 18096 ft 329 kts 279°
2026-05-06 16:09 37.05186 127.45209 17641 ft 340 kts 280°
2026-05-06 16:10 37.05684 127.42227 17153 ft 357 kts 280°
2026-05-06 16:10 37.06192 127.39169 16646 ft 359 kts 280°
2026-05-06 16:10 37.06697 127.36117 16137 ft 357 kts 280°
2026-05-06 16:10 37.07198 127.33090 15634 ft 354 kts 280°
2026-05-06 16:11 37.07695 127.30082 15133 ft 351 kts 280°
2026-05-06 16:11 37.08187 127.27099 14633 ft 349 kts 280°
2026-05-06 16:11 37.08677 127.24139 14136 ft 346 kts 280°
2026-05-06 16:11 37.09161 127.21194 13648 ft 344 kts 280°
2026-05-06 16:12 37.09637 127.18303 13160 ft 341 kts 281°
2026-05-06 16:12 37.10122 127.15373 12675 ft 339 kts 281°
2026-05-06 16:12 37.10596 127.12488 12202 ft 337 kts 281°
2026-05-06 16:12 37.11033 127.09623 11733 ft 334 kts 279°
2026-05-06 16:13 37.11437 127.06763 11264 ft 332 kts 279°
2026-05-06 16:13 37.11827 127.03926 10804 ft 330 kts 278°
2026-05-06 16:13 37.12216 127.01116 10516 ft 322 kts 278°
2026-05-06 16:13 37.12585 126.98403 10357 ft 311 kts 278°
2026-05-06 16:14 37.12946 126.95778 10214 ft 299 kts 278°
2026-05-06 16:14 37.13286 126.93256 10070 ft 288 kts 278°
2026-05-06 16:14 37.13613 126.90827 9860 ft 279 kts 278°
2026-05-06 16:14 37.13937 126.88438 9482 ft 277 kts 278°
2026-05-06 16:15 37.14261 126.86057 9107 ft 276 kts 277°
2026-05-06 16:15 37.14582 126.83696 8732 ft 274 kts 277°
2026-05-06 16:15 37.14898 126.81353 8366 ft 272 kts 277°
2026-05-06 16:15 37.15215 126.79026 8006 ft 270 kts 277°
2026-05-06 16:16 37.15520 126.76713 7643 ft 268 kts 277°
2026-05-06 16:16 37.15928 126.74438 7244 ft 270 kts 289°
2026-05-06 16:16 37.16995 126.72509 6972 ft 269 kts 308°
2026-05-06 16:16 37.18372 126.70874 6727 ft 273 kts 314°
2026-05-06 16:17 37.19808 126.69439 6597 ft 255 kts 318°
2026-05-06 16:17 37.21210 126.68174 6346 ft 242 kts 320°
2026-05-06 16:17 37.22565 126.66991 5868 ft 238 kts 320°
2026-05-06 16:17 37.23913 126.65805 5362 ft 235 kts 320°
2026-05-06 16:18 37.25241 126.64633 4854 ft 233 kts 320°
2026-05-06 16:18 37.26556 126.63467 4546 ft 227 kts 320°
2026-05-06 16:18 37.27809 126.62355 4301 ft 214 kts 320°
2026-05-06 16:18 37.28997 126.61300 3990 ft 204 kts 319°
2026-05-06 16:19 37.30117 126.60304 3697 ft 191 kts 319°
2026-05-06 16:19 37.31164 126.59373 3441 ft 178 kts 319°
2026-05-06 16:19 37.32150 126.58496 3210 ft 171 kts 319°
2026-05-06 16:19 37.33113 126.57640 3002 ft 168 kts 318°
2026-05-06 16:20 37.34066 126.56795 2827 ft 167 kts 323°
2026-05-06 16:20 37.35016 126.55942 2575 ft 169 kts 313°
2026-05-06 16:20 37.35974 126.55085 2340 ft 167 kts 322°
2026-05-06 16:20 37.36923 126.54252 2114 ft 167 kts 326°
2026-05-06 16:21 37.37870 126.53409 1895 ft 167 kts 324°
2026-05-06 16:21 37.38811 126.52568 1672 ft 166 kts 322°
2026-05-06 16:21 37.39749 126.51730 1451 ft 165 kts 321°
2026-05-06 16:21 37.40678 126.50901 1231 ft 163 kts 322°
2026-05-06 16:22 37.41607 126.50072 1015 ft 164 kts 323°
2026-05-06 16:22 37.42523 126.49254 801 ft 164 kts 324°
2026-05-06 16:22 37.43465 126.48414 580 ft 163 kts 324°
2026-05-06 16:22 37.44389 126.47589 360 ft 163 kts 324°
2026-05-06 16:23 37.45309 126.46760 127 ft 162 kts 324°
2026-05-06 16:23 37.46221 126.45947 37 ft 154 kts 325°
2026-05-06 16:23 37.46952 126.45295 37 ft 100 kts 326°
2026-05-06 16:23 37.47411 126.44885 36 ft 63 kts 325°
2026-05-06 16:24 37.47735 126.44684 36 ft 49 kts 352°
2026-05-06 16:24 37.47910 126.44728 36 ft 12 kts 92°
2026-05-06 16:24 37.47773 126.44874 36 ft 65 kts 144°
2026-05-06 16:24 37.47123 126.45450 37 ft 132 kts 144°
2026-05-06 16:25 37.46572 126.45952 36 ft 48 kts 145°
2026-05-06 16:25 37.46438 126.46111 36 ft 19 kts 90°
2026-05-06 16:25 37.46473 126.46262 36 ft 18 kts 60°
2026-05-06 16:25 37.46522 126.46352 36 ft 7 kts 54°
2026-05-06 16:26 37.46553 126.46381 36 ft 6 kts
2026-05-06 16:26 37.46586 126.46354 36 ft 6 kts 324°
2026-05-06 16:26 37.46613 126.46330 36 ft 0 kts 324°